St. Petersburg, FL

4:42 AM EDT on April 25, 2017 (GMT -0400)
Whitted

Weather History for KSPG - June, 2012

Change the Weather History Date:

Thursday, June 7, 2012

  Actual Average Record
Temperature  
Mean Temperature 80 °F -  
Max Temperature 84 °F 89 °F 96 °F (1985)
Min Temperature 75 °F 74 °F 61 °F (1972)
Cooling Degree Days 14    
Growing Degree Days 30 (Base 50)    
Moisture  
Dew Point 75 °F    
Average Humidity 90    
Maximum Humidity 100    
Minimum Humidity 79    
Precipitation  
Precipitation 0.92 in - - ()
Sea Level Pressure  
Sea Level Pressure 29.92 in    
Wind  
Wind Speed 7 mph (SSW)    
Max Wind Speed 24 mph    
Max Gust Speed 34 mph    
Visibility 8 miles    
Events Fog , Rain    
Averages and records for this station are not official NWS values.
T = Trace of Precipitation, MM = Missing Value Source: NWS Daily Summary

Daily Weather History Graph

Daily Weather History Graph

Search for Another Location

Airport or City:

Trip Planner

Search our weather history database for the weather conditions in past years. The results will help you decide how hot, cold, wet, or windy it might be!

Date:

Astronomy

Jun. 07, 2012 Rise Set
Actual Time 6:34 AM EDT 8:25 PM EDT
Civil Twilight 6:07 AM EDT 8:51 PM EDT
Nautical Twilight 5:35 AM EDT 9:23 PM EDT
Astronomical Twilight 5:01 AM EDT 9:57 PM EDT
Moon 11:28 PM EDT (6/7) 9:53 AM EDT (6/7)
Length of Visible Light 14h 43m
Length of Day
13h 50m
Waning Gibbous, 86% of the Moon is Illuminated
Jun 7
Waning Gibbous
Jun 11
Last Quarter
Jun 19
New
Jun 26
First Quarter
Jul 3
Full

Hourly Weather History & Observations

Time (EDT) Temp. Heat Index Dew Point Humidity Pressure Visibility Wind Dir Wind Speed Gust Speed Precip Events Conditions
12:53 AM 79.0 °F - 78.1 °F 97% 29.91 in 8.0 mi SSW 4.6 mph - N/A   Mostly Cloudy
1:15 AM 78.8 °F - 78.8 °F 100% 29.92 in 8.0 mi South 4.6 mph - N/A   Mostly Cloudy
1:53 AM 80.1 °F 85.8 °F 77.0 °F 90% 29.91 in 9.0 mi SSW 3.5 mph - N/A   Scattered Clouds
3:53 AM 79.0 °F - 77.0 °F 94% 29.91 in 10.0 mi Calm Calm - N/A   Scattered Clouds
4:53 AM 79.0 °F - 77.0 °F 94% 29.89 in 8.0 mi Calm Calm - N/A   Mostly Cloudy
5:24 AM 80.6 °F 87.1 °F 77.0 °F 89% 29.89 in 9.0 mi Calm Calm - N/A   Overcast
5:44 AM 78.8 °F - 75.2 °F 89% 29.89 in 10.0 mi Calm Calm - N/A   Mostly Cloudy
5:53 AM 79.0 °F - 75.9 °F 90% 29.89 in 10.0 mi SE 3.5 mph - N/A   Mostly Cloudy
6:33 AM 78.8 °F - 73.4 °F 83% 29.90 in 9.0 mi WSW 5.8 mph - 0.00 in Rain Light Rain
6:53 AM 77.0 °F - 73.9 °F 90% 29.91 in 10.0 mi WSW 3.5 mph - 0.00 in Rain Light Rain
7:53 AM 78.1 °F - 73.9 °F 87% 29.93 in 10.0 mi SSE 13.8 mph - N/A   Overcast
8:49 AM 77.0 °F - 75.2 °F 94% 29.95 in 10.0 mi SE 11.5 mph - 0.00 in Rain Light Rain
8:53 AM 77.0 °F - 75.0 °F 94% 29.94 in 10.0 mi SE 12.7 mph - 0.00 in Rain Light Rain
9:53 AM 77.0 °F - 73.9 °F 90% 29.94 in 9.0 mi SSE 11.5 mph 19.6 mph 0.00 in Rain Light Rain
10:15 AM 78.8 °F - 73.4 °F 83% 29.94 in 1.8 mi SE 10.4 mph 23.0 mph 0.08 in Rain Light Rain
10:25 AM 77.0 °F - 75.2 °F 94% 29.93 in 3.0 mi SSE 11.5 mph - 0.10 in Rain Light Rain
10:34 AM 78.8 °F - 75.2 °F 89% 29.93 in 10.0 mi SSE 10.4 mph - 0.10 in   Mostly Cloudy
10:43 AM 78.8 °F - 75.2 °F 89% 29.93 in 10.0 mi SE 9.2 mph - 0.10 in   Scattered Clouds
10:53 AM 79.0 °F - 75.9 °F 90% 29.94 in 10.0 mi SSE 9.2 mph - 0.10 in   Partly Cloudy
11:53 AM 80.1 °F 85.4 °F 75.9 °F 87% 29.94 in 10.0 mi South 6.9 mph - N/A   Mostly Cloudy
12:53 PM 82.0 °F 91.0 °F 78.1 °F 88% 29.92 in 10.0 mi South 9.2 mph - N/A   Mostly Cloudy
1:00 PM 82.4 °F 92.4 °F 78.8 °F 89% 29.92 in 10.0 mi SSW 9.2 mph - N/A   Mostly Cloudy
1:51 PM 84.2 °F 94.1 °F 77.0 °F 79% 29.92 in 9.0 mi SW 16.1 mph 25.3 mph N/A   Mostly Cloudy
1:53 PM 82.9 °F 91.8 °F 77.0 °F 82% 29.92 in 9.0 mi SW 16.1 mph 21.9 mph N/A   Mostly Cloudy
2:02 PM 82.4 °F 90.9 °F 77.0 °F 84% 29.92 in 9.0 mi SW 11.5 mph 21.9 mph N/A   Mostly Cloudy
2:30 PM 82.4 °F 90.9 °F 77.0 °F 84% 29.91 in 9.0 mi SW 12.7 mph 21.9 mph N/A   Mostly Cloudy
2:53 PM 84.0 °F 93.7 °F 77.0 °F 79% 29.91 in 9.0 mi SW 15.0 mph 21.9 mph N/A   Partly Cloudy
3:53 PM 82.9 °F 90.8 °F 75.9 °F 79% 29.91 in 9.0 mi SW 11.5 mph 20.7 mph N/A   Mostly Cloudy
4:10 PM 80.6 °F 86.2 °F 75.2 °F 84% 29.91 in 2.5 mi SW 24.2 mph 34.5 mph 0.04 in Rain Light Rain
4:17 PM 77.0 °F - 73.4 °F 89% 29.91 in 1.5 mi SSW 15.0 mph 34.5 mph 0.06 in Rain Light Rain
4:21 PM 77.0 °F - 73.4 °F 89% 29.91 in 4.0 mi SW 10.4 mph 20.7 mph 0.06 in Rain Light Rain
4:49 PM 78.8 °F - 75.2 °F 89% 29.93 in 1.5 mi West 24.2 mph 31.1 mph 0.14 in Rain Light Rain
4:51 PM 78.8 °F - 75.2 °F 89% 29.92 in 0.5 mi WSW 24.2 mph 31.1 mph 0.26 in Fog , Rain Heavy Rain
4:53 PM 75.9 °F - 73.9 °F 94% 29.93 in 0.2 mi WSW 17.3 mph 31.1 mph 0.40 in Fog , Rain Heavy Rain
5:09 PM 75.2 °F - 73.4 °F 94% 29.93 in 0.5 mi West 10.4 mph 24.2 mph 0.31 in Fog , Rain Heavy Rain
5:18 PM 75.2 °F - 75.2 °F 100% 29.93 in 1.2 mi West 11.5 mph - 0.36 in Rain Light Rain
5:22 PM 75.2 °F - 73.4 °F 94% 29.92 in 3.0 mi WNW 8.1 mph - 0.36 in Rain Light Rain
5:53 PM 77.0 °F - 75.0 °F 94% 29.91 in 10.0 mi NW 4.6 mph - 0.37 in   Unknown
6:53 PM 78.1 °F - 75.0 °F 90% 29.92 in 10.0 mi Calm Calm - N/A   Scattered Clouds
7:53 PM 79.0 °F - 75.9 °F 90% 29.92 in 10.0 mi South 5.8 mph - N/A   Clear
8:53 PM 78.1 °F - 75.9 °F 93% 29.93 in 10.0 mi WSW 4.6 mph - N/A   Scattered Clouds
9:22 PM 78.8 °F - 75.2 °F 89% 29.93 in 10.0 mi WSW 3.5 mph - N/A   Mostly Cloudy
9:53 PM 78.1 °F - 75.0 °F 90% 29.94 in 8.0 mi WSW 13.8 mph - 0.01 in Rain Light Rain
10:53 PM 75.9 °F - 73.9 °F 94% 29.96 in 10.0 mi North 4.6 mph - 0.02 in Rain Light Rain
11:04 PM 75.2 °F - 73.4 °F 94% 29.96 in 8.0 mi North 4.6 mph - 0.01 in Rain Light Rain
11:15 PM 75.2 °F - 73.4 °F 94% 29.95 in 10.0 mi NNE 5.8 mph - 0.01 in Rain Light Rain
11:22 PM 75.2 °F - 73.4 °F 94% 29.95 in 10.0 mi Calm Calm - 0.01 in Rain Light Rain
11:41 PM 75.2 °F - 73.4 °F 94% 29.95 in 8.0 mi Calm Calm - 0.02 in Rain Light Rain
11:53 PM 75.9 °F - 73.9 °F 94% 29.95 in 10.0 mi SW 3.5 mph - 0.02 in Rain Light Rain